Regional Weather Roundup
Issued by NWS

Home | Current Version | Previous Version | Text Only | Print | Product List | Glossary On
Versions: 1 2 3 4 5 6 7 8 9 10 11 12 13 14 15 16 17 18 19 20 21 22 23 24 25 26 27 28 29 30 31 32 33 34 35 36 37 38 39 40 41 42 43 44 45 46 47 48 49 50
000
ASUS43 KTOP 311008
RWRKS

WEATHER ROUNDUP FOR KANSAS
NATIONAL WEATHER SERVICE GOODLAND KS
500 AM CDT MON AUG 31 2015

NOTE:  "FAIR" INDICATES FEW OR NO CLOUDS BELOW 12,000 FEET WITH NO
SIGNIFICANT WEATHER AND/OR OBSTRUCTIONS TO VISIBILITY.

KSZ001>006-013>018-027>032-041>047-311100-
NORTHWEST KANSAS

CITY           SKY/WX    TMP DP  RH WIND       PRES   REMARKS
GOODLAND       CLEAR     60  53  77 S13       29.93F
HAYS           CLEAR     61  54  77 SE5       29.94S
HILL CITY      CLEAR     61  58  90 CALM      29.94S
RUSSELL        CLEAR     64  62  93 S9        29.93S
$$

KSZ061>065-074>080-084>089-311100-
SOUTHWEST KANSAS

CITY           SKY/WX    TMP DP  RH WIND       PRES   REMARKS
DODGE CITY     CLEAR     62  59  90 S8        29.95F
ELKHART          N/A     61  49  65 S9          N/A
GARDEN CITY    CLEAR     61  57  87 SE12      29.94S
GREAT BEND     CLEAR     61  57  88 SE6       29.94F
LIBERAL        CLEAR     61  50  67 S9        29.96S
PRATT          CLEAR     64  63  94 CALM      29.96S FOG
$$

KSZ066>073-081>083-090>101-311100-
SOUTHEAST KANSAS

CITY           SKY/WX    TMP DP  RH WIND       PRES   REMARKS
CHANUTE        CLEAR     70  69  97 SE6       29.96S FOG
COFFEYVILLE    CLEAR     68  67  96 CALM      29.96R FOG
HUTCHINSON     FOG       65  63  93 E3        29.95S VSB 1/4
MEDICINE LODGE   N/A     69  68  96 E6        29.93S
NEWTON         CLEAR     66  61  82 SE7       29.98S
PARSONS        CLEAR     69  68  96 SE3       29.97R FOG
WICHITA INTL   CLEAR     71  68  90 E5        29.94S FOG
WICHITA JABRA  FOG       64  64 100 CALM      29.95S VSB 1/4
WICHITA MCCONL CLEAR     70  61  73 E6        29.95R
WINFIELD       CLEAR     68  67  96 CALM      29.96R
$$

KSZ007>012-019>026-033>040-048>060-102>105-311100-
NORTHEAST KANSAS

CITY           SKY/WX    TMP DP  RH WIND       PRES   REMARKS
CONCORDIA      CLEAR     64  62  93 S5        29.94S FOG
EMPORIA        FOG       64  64 100 CALM      29.96S VSB 1
LAWRENCE       PTCLDY    63  63 100 CALM      29.96R FOG
MANHATTAN      PTCLDY    62  62 100 CALM      29.94F FOG
MARYSVILLE     CLEAR    N/A N/A N/A SE3       29.95S FOG
OLATHE IND     CLEAR     70  69  97 SE5       29.97R FOG
OLATHE EXE     CLEAR     69  69 100 SE6       29.96S FOG
SALINA         PTCLDY    64  62  93 S3        29.94S FOG
TOPEKA BILLARD CLEAR     67  65  93 CALM      29.95S FOG
TOPEKA FORBES  CLEAR     66  63  90 CALM      29.96S FOG
$$


USA.gov is the U.S. government's official web portal to all federal, state and local government web resources and services.